Pomona, NJ

8:16 AM EDT on September 30, 2016 (GMT -0400)
Atlantic City International

Weather History for KACY - September, 2013

Change the Weather History Date:

Saturday, September 14, 2013

  Actual Average Record
Temperature  
Mean Temperature 59 °F 68 °F  
Max Temperature 70 °F 78 °F 92 °F (1981)
Min Temperature 48 °F 58 °F 37 °F (1975)
Degree Days  
Heating Degree Days 6 1  
Month to date heating degree days 13 11  
Since 1 July heating degree days 13 14  
Cooling Degree Days 0 4  
Month to date cooling degree days 96 82  
Year to date cooling degree days 1052 991  
Growing Degree Days 9 (Base 50)    
Moisture  
Dew Point 47 °F    
Average Humidity 69    
Maximum Humidity 93    
Minimum Humidity 44    
Precipitation  
Precipitation 0.00 in 0.11 in 3.86 in (1973)
Month to date precipitation 0.68 1.35  
Year to date precipitation 32.10 29.57  
Snow  
Snow 0.00 in 0.00 in 0.00 in ()
Month to date snowfall 0.0 0.0  
Since 1 July snowfall 0.0 0.0  
Since 1 September snowfall 0.0 0.0  
Snow Depth 0.00 in    
Sea Level Pressure  
Sea Level Pressure 30.03 in    
Wind  
Wind Speed 8 mph (NW)    
Max Wind Speed 20 mph    
Max Gust Speed 25 mph    
Visibility 10 miles    
Events      
T = Trace of Precipitation, MM = Missing Value Source: NWS Daily Summary

Daily Weather History Graph

Daily Weather History Graph

Search for Another Location

Airport or City:

Trip Planner

Search our weather history database for the weather conditions in past years. The results will help you decide how hot, cold, wet, or windy it might be!

Date:

Astronomy

Sep. 14, 2013 Rise Set
Actual Time 6:38 AM EDT 7:08 PM EDT
Civil Twilight 6:11 AM EDT 7:34 PM EDT
Nautical Twilight 5:39 AM EDT 8:06 PM EDT
Astronomical Twilight 5:07 AM EDT 8:39 PM EDT
Moon 3:46 PM EDT (9/14) 1:08 AM EDT (9/14)
Length of Visible Light 13h 23m
Length of Day
12h 29m
Waxing Gibbous, 72% of the Moon is Illuminated
Sep 14
Waxing Gibbous
Sep 19
Full
Sep 26
Last Quarter
Oct 4
New
Oct 11
First Quarter

Hourly Weather History & Observations

Time (EDT) Temp. Dew Point Humidity Pressure Visibility Wind Dir Wind Speed Gust Speed Precip Events Conditions
12:54 AM 57.0 °F 52.0 °F 83% 29.90 in 10.0 mi NNW 6.9 mph - N/A   Clear
1:54 AM 57.0 °F 50.0 °F 77% 29.90 in 10.0 mi NNW 9.2 mph - N/A   Clear
2:54 AM 54.0 °F 50.0 °F 86% 29.92 in 10.0 mi NNW 8.1 mph - N/A   Clear
3:54 AM 52.0 °F 48.9 °F 89% 29.93 in 10.0 mi NNW 6.9 mph - N/A   Clear
4:54 AM 50.0 °F 48.0 °F 93% 29.94 in 10.0 mi NNW 3.5 mph - N/A   Clear
5:54 AM 48.9 °F 46.9 °F 93% 29.95 in 10.0 mi NW 5.8 mph - N/A   Clear
6:54 AM 50.0 °F 46.9 °F 89% 29.97 in 10.0 mi WNW 3.5 mph - N/A   Clear
7:54 AM 54.0 °F 48.0 °F 80% 30.00 in 10.0 mi NW 8.1 mph - N/A   Clear
8:54 AM 57.9 °F 46.0 °F 65% 30.01 in 10.0 mi NNW 12.7 mph - N/A   Clear
9:54 AM 61.0 °F 46.9 °F 60% 30.02 in 10.0 mi NNW 11.5 mph 19.6 mph N/A   Clear
10:54 AM 63.0 °F 46.0 °F 54% 30.02 in 10.0 mi NNW 13.8 mph 25.3 mph N/A   Clear
11:54 AM 66.0 °F 46.9 °F 50% 30.03 in 10.0 mi NW 13.8 mph 18.4 mph N/A   Clear
12:54 PM 68.0 °F 46.9 °F 47% 30.03 in 10.0 mi WNW 12.7 mph 18.4 mph N/A   Scattered Clouds
1:54 PM 69.1 °F 46.0 °F 44% 30.03 in 10.0 mi WNW 11.5 mph 19.6 mph N/A   Partly Cloudy
2:54 PM 66.9 °F 46.9 °F 49% 30.03 in 10.0 mi NW 18.4 mph - N/A   Mostly Cloudy
3:54 PM 66.9 °F 46.0 °F 47% 30.04 in 10.0 mi WNW 15.0 mph - N/A   Partly Cloudy
4:54 PM 66.9 °F 46.9 °F 49% 30.05 in 10.0 mi NNW 9.2 mph - N/A   Clear
5:54 PM 64.9 °F 46.9 °F 52% 30.07 in 10.0 mi NNW 12.7 mph - N/A   Partly Cloudy
6:54 PM 61.0 °F 46.9 °F 60% 30.09 in 10.0 mi NW 5.8 mph - N/A   Clear
7:54 PM 57.9 °F 48.0 °F 70% 30.11 in 10.0 mi West 5.8 mph - N/A   Clear
8:54 PM 55.0 °F 48.0 °F 77% 30.14 in 10.0 mi WNW 5.8 mph - N/A   Clear
9:54 PM 52.0 °F 46.9 °F 83% 30.15 in 10.0 mi NW 4.6 mph - N/A   Clear
10:54 PM 50.0 °F 46.0 °F 86% 30.16 in 10.0 mi NW 3.5 mph - N/A   Clear
11:54 PM 50.0 °F 46.0 °F 86% 30.17 in 10.0 mi Calm Calm - N/A   Clear